1998-067VA (55183 NORAD) Tracking and Keplerian Element Data

This shows tracking and keplerian element data for the satellite.

Feedback or suggestion? Click here.




ElementValue
Catalog55183
Name1998-067VA
Epoch Orbit115
Epoch Day13.68993105
Epoch Year2023
RAAN13.7692
Inclination51.6426
Eccentricity0.0005126
Argument of Perigee299.8594
Mean Anonmoly60.1886
Mean Motion15.51295548
Decay Rate0.00045842
L11 55183U 98067VA 23013.68993105 .00045842 00000+0 77010-3 0 9992
L22 55183 51.6426 13.7692 0005126 299.8594 60.1886 15.51295548 1157



Live tracking and technical data element details for 1998-067VA (NORAD 55183). 1998-067VA can be tracked NOW for your location showing map with azimuth and elevation plus other details from your city location.







IsCatalogInMostPopularTable: catalog: 55183, numindb: 4
Update: records affected: 1



GetName: 55183 1998-067VA

Hit Count: updated at: Tue, 07 Feb 2023 15:59:04 GMT